| time (UTC) | temp F | wind direction | speed knots | gust knots | rain 1hr in | rain 24hr in | rain mn in | humidity % | barometer mb |
| 20260508102907 | 71 | 319 | 9.6 | 16.5 | 0.00 | 0.00 | 0.00 | 64 | 1006.3 |
| 20260508102006 | 71 | 316 | 7.8 | 13.9 | 0.00 | 0.00 | 0.00 | 64 | 1006.2 |
| 20260508101108 | 69 | 291 | 5.2 | 8.7 | 0.00 | 0.00 | 0.00 | 76 | 1006.1 |
| 20260508094406 | 69 | 279 | 6.1 | 9.6 | 0.00 | 0.00 | 0.00 | 82 | 1006.0 |
| 20260508093506 | 69 | 280 | 7.0 | 11.3 | 0.00 | 0.00 | 0.00 | 81 | 1005.8 |
| 20260508092608 | 70 | 275 | 6.1 | 10.4 | 0.00 | 0.00 | 0.00 | 81 | 1005.8 |
| 20260508091711 | 70 | 275 | 6.1 | 8.7 | 0.00 | 0.00 | 0.00 | 81 | 1005.8 |
| 20260508085006 | 71 | 280 | 5.2 | 8.7 | 0.00 | 0.00 | 0.00 | 81 | 1005.7 |
| 20260508084107 | 71 | 269 | 5.2 | 7.8 | 0.00 | 0.00 | 0.00 | 80 | 1005.6 |
| 20260508083206 | 71 | 284 | 4.3 | 8.7 | 0.00 | 0.00 | 0.00 | 80 | 1005.5 |
| 20260508082307 | 71 | 277 | 4.3 | 8.7 | 0.00 | 0.00 | 0.00 | 81 | 1005.6 |
| 20260508081408 | 70 | 275 | 6.1 | 9.6 | 0.00 | 0.00 | 0.00 | 82 | 1005.8 |
| 20260508075608 | 70 | 263 | 6.1 | 12.2 | 0.00 | 0.00 | 0.00 | 82 | 1006.1 |
| 20260508074708 | 70 | 272 | 6.1 | 11.3 | 0.00 | 0.00 | 0.00 | 82 | 1005.9 |
| 20260508073808 | 70 | 262 | 4.3 | 8.7 | 0.00 | 0.00 | 0.00 | 83 | 1005.9 |
| 20260508072006 | 70 | 267 | 6.1 | 10.4 | 0.00 | 0.00 | 0.00 | 83 | 1006.2 |
| 20260508071106 | 70 | 273 | 6.1 | 10.4 | 0.00 | 0.00 | 0.00 | 83 | 1006.1 |
| 20260508070206 | 70 | 279 | 7.0 | 12.2 | 0.00 | 0.00 | 0.00 | 84 | 1006.2 |
| 20260508065307 | 69 | 269 | 7.8 | 11.3 | 0.00 | 0.00 | 0.00 | 84 | 1006.4 |
| 20260508061708 | 71 | 270 | 7.0 | 13.0 | 0.00 | 0.00 | 0.00 | 81 | 1006.2 |
| 20260508060808 | 71 | 278 | 7.8 | 13.0 | 0.00 | 0.00 | 0.00 | 81 | 1006.2 |
| 20260508055906 | 71 | 266 | 7.0 | 10.4 | 0.00 | 0.00 | 0.00 | 82 | 1006.4 |
| 20260508055007 | 71 | 267 | 7.8 | 12.2 | 0.00 | 0.00 | 0.00 | 82 | 1006.4 |
| 20260508054107 | 71 | 263 | 8.7 | 13.0 | 0.00 | 0.00 | 0.00 | 82 | 1006.4 |
| 20260508052307 | 72 | 255 | 7.8 | 13.0 | 0.00 | 0.00 | 0.00 | 80 | 1006.4 |
| 20260508051406 | 72 | 245 | 7.8 | 12.2 | 0.00 | 0.00 | 0.00 | 79 | 1006.4 |
| 20260508050506 | 72 | 263 | 8.7 | 13.0 | 0.00 | 0.00 | 0.00 | 79 | 1006.3 |
| 20260508045606 | 72 | 259 | 7.8 | 13.0 | 0.00 | 0.00 | 0.00 | 78 | 1006.5 |
| 20260508044706 | 72 | 258 | 7.8 | 13.9 | 0.00 | 0.00 | 0.00 | 78 | 1006.5 |
| 20260508042906 | 73 | 270 | 8.7 | 13.0 | 0.00 | 0.00 | 0.00 | 76 | 1007.1 |
| 20260508042007 | 74 | 260 | 8.7 | 13.9 | 0.00 | 0.00 | 0.00 | 76 | 1007.1 |
| 20260508041107 | 74 | 257 | 9.6 | 14.8 | 0.00 | 0.00 | 0.00 | 75 | 1007.1 |
| 20260508040208 | 75 | 245 | 7.8 | 12.2 | 0.00 | 0.00 | 0.00 | 73 | 1007.2 |
| 20260508035307 | 75 | 246 | 7.8 | 12.2 | 0.00 | 0.00 | 0.00 | 73 | 1007.1 |
| 20260508034406 | 75 | 270 | 7.8 | 12.2 | 0.00 | 0.00 | 0.00 | 74 | 1007.0 |
| 20260508033506 | 74 | 255 | 6.1 | 12.2 | 0.00 | 0.00 | 0.00 | 78 | 1007.3 |
| 20260508032606 | 73 | 264 | 7.0 | 10.4 | 0.00 | 0.00 | 0.00 | 78 | 1007.2 |
| 20260508031706 | 72 | 252 | 6.1 | 10.4 | 0.00 | 0.00 | 0.00 | 79 | 1007.4 |
| 20260508030806 | 72 | 259 | 6.1 | 10.4 | 0.00 | 0.00 | 0.00 | 80 | 1007.4 |
| 20260508025907 | 72 | 257 | 6.1 | 9.6 | 0.00 | 0.00 | 0.00 | 80 | 1007.4 |
| 20260508025006 | 71 | 259 | 6.1 | 9.6 | 0.00 | 0.00 | 0.00 | 81 | 1007.8 |
| 20260508024106 | 71 | 262 | 5.2 | 9.6 | 0.00 | 0.00 | 0.00 | 83 | 1007.9 |
| 20260508023206 | 71 | 239 | 5.2 | 8.7 | 0.00 | 0.00 | 0.00 | 83 | 1008.1 |
| 20260508022307 | 71 | 251 | 6.1 | 10.4 | 0.00 | 0.00 | 0.00 | 82 | 1008.2 |
| 20260508021408 | 71 | 238 | 6.1 | 10.4 | 0.00 | 0.00 | 0.00 | 83 | 1008.3 |
| 20260508020506 | 71 | 244 | 4.3 | 8.7 | 0.00 | 0.00 | 0.00 | 84 | 1008.4 |
| 20260508014706 | 70 | 258 | 6.1 | 10.4 | 0.00 | 0.00 | 0.00 | 85 | 1008.6 |
| 20260508013808 | 69 | 253 | 6.1 | 10.4 | 0.00 | 0.00 | 0.00 | 86 | 1008.8 |
| 20260508012906 | 69 | 268 | 6.1 | 10.4 | 0.00 | 0.00 | 0.00 | 86 | 1008.9 |
| 20260508012006 | 69 | 257 | 6.1 | 10.4 | 0.00 | 0.00 | 0.00 | 88 | 1009.1 |
| 20260508011107 | 69 | 246 | 7.0 | 11.3 | 0.00 | 0.00 | 0.00 | 87 | 1009.2 |
| 20260508010208 | 70 | 246 | 6.1 | 10.4 | 0.00 | 0.00 | 0.00 | 86 | 1009.1 |
| 20260508005308 | 70 | 239 | 4.3 | 8.7 | 0.00 | 0.00 | 0.00 | 86 | 1008.8 |
| 20260508004406 | 70 | 228 | 4.3 | 7.8 | 0.00 | 0.00 | 0.00 | 86 | 1008.9 |
| 20260508003507 | 70 | 253 | 4.3 | 7.8 | 0.00 | 0.00 | 0.00 | 85 | 1008.9 |
| 20260508002607 | 70 | 234 | 5.2 | 9.6 | 0.00 | 0.00 | 0.00 | 86 | 1008.8 |
| 20260508001707 | 71 | 228 | 5.2 | 7.8 | 0.00 | 0.00 | 0.00 | 83 | 1009.1 |
| 20260508000808 | 71 | 239 | 4.3 | 7.0 | 0.00 | 0.00 | 0.00 | 83 | 1008.9 |
| 20260507235906 | 72 | 216 | 3.5 | 7.8 | 0.00 | 0.00 | 0.00 | 82 | 1008.9 |
| 20260507235006 | 72 | 216 | 2.6 | 7.0 | 0.00 | 0.00 | 0.00 | 83 | 1008.9 |
| 20260507234108 | 72 | 226 | 3.5 | 7.0 | 0.00 | 0.00 | 0.00 | 82 | 1008.8 |
| 20260507233207 | 73 | 197 | 2.6 | 4.3 | 0.00 | 0.00 | 0.00 | 81 | 1009.0 |
| 20260507232307 | 73 | 188 | 2.6 | 5.2 | 0.00 | 0.00 | 0.00 | 81 | 1008.8 |
| 20260507231406 | 73 | 167 | 1.7 | 4.3 | 0.00 | 0.00 | 0.00 | 80 | 1009.0 |
| 20260507230506 | 72 | 239 | 1.7 | 3.5 | 0.00 | 0.00 | 0.00 | 82 | 1009.0 |
| 20260507225606 | 71 | 230 | 2.6 | 5.2 | 0.00 | 0.00 | 0.00 | 82 | 1009.3 |
| 20260507224706 | 71 | 264 | 1.7 | 4.3 | 0.00 | 0.00 | 0.00 | 82 | 1009.6 |
| 20260507223806 | 71 | 294 | 1.7 | 4.3 | 0.00 | 0.00 | 0.00 | 81 | 1009.7 |
| 20260507222906 | 71 | 70 | 0.9 | 2.6 | 0.00 | 0.00 | 0.00 | 82 | 1009.6 |
| 20260507222006 | 70 | 28 | 0.0 | 1.7 | 0.00 | 0.00 | 0.00 | 83 | 1009.5 |
| 20260507215307 | 68 | 28 | 0.0 | 1.7 | 0.00 | 0.00 | 0.00 | 85 | 1010.1 |
| 20260507212606 | 67 | 0 | 0.0 | 0.0 | 0.00 | 0.00 | 0.00 | 86 | 1010.2 |
| 20260507210806 | 67 | 0 | 0.0 | 0.0 | 0.00 | 0.00 | 0.00 | 86 | 1010.0 |
| 20260507205908 | 66 | 28 | 0.0 | 0.9 | 0.00 | 0.00 | 0.00 | 87 | 1010.1 |
| 20260507205006 | 66 | 6 | 0.9 | 2.6 | 0.00 | 0.00 | 0.00 | 87 | 1009.9 |
| 20260507204106 | 66 | 350 | 0.9 | 2.6 | 0.00 | 0.00 | 0.00 | 87 | 1010.0 |
| 20260507203206 | 66 | 350 | 0.9 | 2.6 | 0.00 | 0.00 | 0.00 | 87 | 1010.0 |
| 20260507201406 | 66 | 350 | 0.9 | 2.6 | 0.00 | 0.00 | 0.00 | 88 | 1010.1 |
| 20260507195606 | 66 | 346 | 0.0 | 0.9 | 0.00 | 0.00 | 0.00 | 88 | 1010.0 |
| 20260507194708 | 66 | 0 | 0.0 | 0.0 | 0.00 | 0.00 | 0.00 | 88 | 1009.9 |
| 20260507193806 | 66 | 350 | 0.0 | 2.6 | 0.00 | 0.00 | 0.00 | 88 | 1010.1 |
| 20260507192906 | 66 | 347 | 0.9 | 2.6 | 0.00 | 0.00 | 0.00 | 88 | 1010.1 |
| 20260507192006 | 66 | 340 | 0.0 | 1.7 | 0.00 | 0.00 | 0.00 | 89 | 1010.0 |
| 20260507191106 | 66 | 343 | 0.9 | 1.7 | 0.00 | 0.00 | 0.00 | 89 | 1010.1 |
| 20260507190207 | 65 | 342 | 0.9 | 2.6 | 0.00 | 0.00 | 0.00 | 89 | 1010.1 |
| 20260507184406 | 65 | 356 | 0.9 | 3.5 | 0.00 | 0.00 | 0.00 | 89 | 1010.3 |
| 20260507183506 | 66 | 9 | 0.9 | 2.6 | 0.00 | 0.00 | 0.00 | 88 | 1010.2 |
| 20260507182606 | 66 | 60 | 0.9 | 2.6 | 0.00 | 0.00 | 0.00 | 88 | 1010.2 |
| 20260507181706 | 66 | 60 | 0.9 | 1.7 | 0.00 | 0.00 | 0.00 | 88 | 1010.3 |
| 20260507180806 | 66 | 60 | 0.9 | 2.6 | 0.00 | 0.00 | 0.00 | 88 | 1010.4 |
| 20260507175907 | 66 | 20 | 0.9 | 2.6 | 0.00 | 0.00 | 0.00 | 88 | 1010.4 |
| 20260507175006 | 66 | 17 | 0.9 | 4.3 | 0.00 | 0.00 | 0.00 | 88 | 1010.3 |
| 20260507174106 | 67 | 359 | 1.7 | 3.5 | 0.00 | 0.00 | 0.00 | 88 | 1010.5 |
| 20260507173206 | 67 | 335 | 1.7 | 3.5 | 0.00 | 0.00 | 0.00 | 89 | 1010.6 |
| 20260507171406 | 67 | 322 | 0.9 | 2.6 | 0.00 | 0.00 | 0.00 | 90 | 1010.8 |
| 20260507165608 | 67 | 322 | 1.7 | 3.5 | 0.00 | 0.00 | 0.00 | 90 | 1011.0 |
| 20260507164706 | 67 | 319 | 0.9 | 1.7 | 0.00 | 0.00 | 0.00 | 89 | 1011.0 |
| 20260507163806 | 67 | 320 | 0.9 | 2.6 | 0.00 | 0.00 | 0.00 | 89 | 1011.2 |
| 20260507162906 | 67 | 317 | 1.7 | 2.6 | 0.00 | 0.00 | 0.00 | 89 | 1011.3 |
| 20260507162006 | 67 | 318 | 1.7 | 3.5 | 0.00 | 0.00 | 0.00 | 89 | 1011.5 |
| 20260507161106 | 67 | 320 | 1.7 | 3.5 | 0.00 | 0.00 | 0.00 | 89 | 1011.6 |
| 20260507160206 | 67 | 321 | 0.9 | 2.6 | 0.00 | 0.00 | 0.00 | 89 | 1011.5 |
| 20260507154406 | 67 | 312 | 1.7 | 2.6 | 0.00 | 0.00 | 0.00 | 89 | 1011.7 |
| 20260507153506 | 67 | 318 | 0.9 | 3.5 | 0.00 | 0.00 | 0.00 | 89 | 1011.6 |
| 20260507152607 | 68 | 318 | 0.9 | 2.6 | 0.00 | 0.00 | 0.00 | 89 | 1011.8 |
| 20260507151707 | 68 | 297 | 1.7 | 5.2 | 0.00 | 0.00 | 0.00 | 89 | 1011.7 |
| 20260507145006 | 68 | 262 | 1.7 | 3.5 | 0.00 | 0.00 | 0.00 | 89 | 1012.3 |
| 20260507144106 | 68 | 260 | 2.6 | 5.2 | 0.00 | 0.00 | 0.00 | 89 | 1012.4 |
| 20260507142307 | 68 | 279 | 1.7 | 3.5 | 0.00 | 0.00 | 0.00 | 88 | 1012.5 |
| 20260507141406 | 68 | 278 | 0.9 | 2.6 | 0.00 | 0.00 | 0.00 | 88 | 1012.4 |
| 20260507135606 | 68 | 279 | 0.9 | 2.6 | 0.00 | 0.00 | 0.00 | 88 | 1012.6 |
| 20260507134706 | 68 | 289 | 0.0 | 1.7 | 0.00 | 0.00 | 0.00 | 88 | 1012.6 |
| 20260507132006 | 68 | 283 | 0.9 | 2.6 | 0.00 | 0.00 | 0.00 | 88 | 1013.0 |
| 20260507131106 | 68 | 284 | 0.9 | 2.6 | 0.00 | 0.00 | 0.00 | 88 | 1013.0 |
| 20260507130206 | 68 | 280 | 0.9 | 2.6 | 0.00 | 0.00 | 0.00 | 88 | 1012.9 |